Davenport, IA

2:15 AM CDT on April 24, 2018 (GMT -0500)
Davenport Municipal

Weather History for KDVN - January, 2012

Change the Weather History Date:

Tuesday, January 24, 2012

  Actual Average Record
Temperature  
Mean Temperature 26 °F 21 °F  
Max Temperature 32 °F 30 °F 65 °F (1950)
Min Temperature 19 °F 13 °F -18 °F (2008)
Degree Days  
Heating Degree Days 39 44  
Month to date heating degree days 930 1055  
Since 1 July heating degree days 3164 3635  
Cooling Degree Days 0 0  
Month to date cooling degree days 0 0  
Year to date cooling degree days 0 0  
Moisture  
Dew Point 19 °F    
Average Humidity 74    
Maximum Humidity 84    
Minimum Humidity 63    
Precipitation  
Precipitation 0.00 in 0.05 in 0.52 in (1969)
Month to date precipitation 0.63 0.71  
Year to date precipitation 0.63 0.71  
Snow  
Snow 0.00 in - - ()
Month to date snowfall 10.2  
Since 1 July snowfall 12.0  
Snow Depth T in    
Sea Level Pressure  
Sea Level Pressure 30.24 in    
Wind  
Wind Speed 9 mph (WNW)    
Max Wind Speed 15 mph    
Max Gust Speed 17 mph    
Visibility 8 miles    
Events      
T = Trace of Precipitation, MM = Missing Value Source: NWS Daily Summary

Daily Weather History Graph

Daily Weather History Graph

Search for Another Location

Airport or City:

Astronomy

Jan. 24, 2012 Rise Set
Actual Time 7:21 AM CST 5:07 PM CST
Civil Twilight 6:51 AM CST 5:37 PM CST
Nautical Twilight 6:17 AM CST 6:11 PM CST
Astronomical Twilight 5:45 AM CST 6:44 PM CST
Moon 7:49 AM CST 7:01 PM CST
Length of Visible Light 10h 45m
Length of Day
9h 45m
New Moon, 2% of the Moon is Illuminated
Jan 24
New Moon
Jan 30
First Quarter
Feb 7
Full
Feb 14
Last Quarter
Feb 21
New

Hourly Weather History & Observations

Time (CST) Temp. Windchill Dew Point Humidity Pressure Visibility Wind Dir Wind Speed Gust Speed Precip Events Conditions
12:52 AM 27.0 °F 15.2 °F 19.9 °F 75% 30.03 in 8.0 mi West 15.0 mph - N/A   Overcast
1:06 AM 26.6 °F 14.3 °F 19.4 °F 74% 30.00 in 8.0 mi West 16.1 mph - N/A   Overcast
1:52 AM 26.1 °F 14.5 °F 19.0 °F 75% 30.05 in 8.0 mi West 13.8 mph - N/A   Overcast
2:19 AM 26.6 °F 15.7 °F 19.4 °F 74% 30.04 in 8.0 mi West 12.7 mph - N/A   Overcast
2:52 AM 26.1 °F 14.5 °F 19.0 °F 75% 30.08 in 8.0 mi West 13.8 mph - N/A   Overcast
3:52 AM 26.1 °F 14.0 °F 19.0 °F 75% 30.10 in 8.0 mi West 15.0 mph - N/A   Overcast
5:52 AM 26.1 °F 15.6 °F 18.0 °F 71% 30.17 in 8.0 mi WNW 11.5 mph - N/A   Overcast
6:52 AM 26.1 °F 16.2 °F 18.0 °F 71% 30.19 in 8.0 mi WNW 10.4 mph - N/A   Overcast
7:52 AM 26.1 °F 16.2 °F 19.0 °F 75% 30.21 in 6.0 mi WNW 10.4 mph - N/A   Haze
8:52 AM 26.1 °F 15.6 °F 19.0 °F 75% 30.23 in 7.0 mi WNW 11.5 mph - N/A   Overcast
9:52 AM 28.0 °F 19.3 °F 19.0 °F 69% 30.25 in 8.0 mi NW 9.2 mph - N/A   Scattered Clouds
10:52 AM 30.0 °F 21.7 °F 21.0 °F 69% 30.27 in 8.0 mi WNW 9.2 mph - N/A   Clear
11:52 AM 30.0 °F 20.5 °F 19.9 °F 66% 30.29 in 8.0 mi WNW 11.5 mph - N/A   Clear
12:52 PM 30.0 °F 20.5 °F 21.0 °F 69% 30.31 in 8.0 mi WNW 11.5 mph - N/A   Clear
1:52 PM 30.0 °F 22.4 °F 21.0 °F 69% 30.31 in 9.0 mi NW 8.1 mph - N/A   Clear
2:52 PM 30.9 °F 24.3 °F 21.9 °F 69% 30.30 in 8.0 mi NW 6.9 mph - N/A   Clear
3:52 PM 30.9 °F 25.2 °F 21.0 °F 67% 30.31 in 8.0 mi NW 5.8 mph - N/A   Clear
4:52 PM 30.0 °F 25.2 °F 21.9 °F 72% 30.32 in 7.0 mi NW 4.6 mph - N/A   Clear
5:52 PM 28.0 °F 22.8 °F 21.9 °F 78% 30.35 in 7.0 mi NNW 4.6 mph - N/A   Clear
6:52 PM 25.0 °F 20.7 °F 19.9 °F 81% 30.35 in 6.0 mi NNW 3.5 mph - N/A   Haze
7:52 PM 24.1 °F 17.0 °F 19.0 °F 81% 30.35 in 8.0 mi NNE 5.8 mph - N/A   Clear
8:52 PM 21.9 °F - 16.0 °F 78% 30.36 in 8.0 mi Calm Calm - N/A   Clear
9:52 PM 23.0 °F - 17.1 °F 78% 30.36 in 7.0 mi Calm Calm - N/A   Clear
10:52 PM 19.0 °F 12.3 °F 15.1 °F 85% 30.35 in 7.0 mi East 4.6 mph - N/A   Clear
11:52 PM 21.9 °F 14.5 °F 17.1 °F 82% 30.36 in 6.0 mi ESE 5.8 mph - N/A   Haze